Rabat, Morocco

11:38 AM WET on February 28, 2017 (GMT +0000)
Sale

Weather History for GMME - August, 2014

Change the Weather History Date:

Wednesday, August 20, 2014

  Actual Average Record
Temperature  
Mean Temperature 68 °F -  
Max Temperature 80 °F 77 °F 98 °F (2012)
Min Temperature 57 °F 62 °F 57 °F (2014)
Cooling Degree Days 4    
Growing Degree Days 18 (Base 50)    
Moisture  
Dew Point 61 °F    
Average Humidity 76    
Maximum Humidity 94    
Minimum Humidity 46    
Precipitation  
Precipitation 0.00 in 0.01 in - ()
Sea Level Pressure  
Sea Level Pressure 30.04 in    
Wind  
Wind Speed 4 mph ()    
Max Wind Speed 13 mph    
Max Gust Speed -    
Visibility 4.1 miles    
Events      
Averages and records for this station are not official NWS values.
T = Trace of Precipitation, MM = Missing Value Source: Averaged Metar Reports

Daily Weather History Graph

Daily Weather History Graph

Search for Another Location

Airport or City:

Trip Planner

Search our weather history database for the weather conditions in past years. The results will help you decide how hot, cold, wet, or windy it might be!

Date:

Astronomy

Aug. 20, 2014 Rise Set
Actual Time 6:52 AM WEST 8:08 PM WEST
Civil Twilight 6:25 AM WEST 8:34 PM WEST
Nautical Twilight 5:54 AM WEST 9:05 PM WEST
Astronomical Twilight 5:22 AM WEST 9:37 PM WEST
Moon 2:25 AM WEST (8/20) 4:37 PM WEST (8/20)
Length of Visible Light 14h 08m
Length of Day
13h 16m
Waning Crescent, 22% of the Moon is Illuminated
Aug 20
Waning Crescent
Aug 25
New
Sep 2
First Quarter
Sep 9
Full
Sep 16
Last Quarter

Hourly Weather History & Observations

Time (WEST) Temp. Heat Index Dew Point Humidity Pressure Visibility Wind Dir Wind Speed Gust Speed Precip Events Conditions
12:00 AM 64.4 °F - 60.8 °F 88% 30.09 in 5.0 mi ESE 3.5 mph - N/A   Mostly Cloudy
12:30 AM 64.4 °F - 59.0 °F 83% 30.09 in 5.0 mi Variable 2.3 mph - N/A   Mostly Cloudy
1:00 AM 63 °F - 59 °F 84% 30.09 in 5 mi ESE 3.5 mph - -   Mostly Cloudy
1:00 AM 62.6 °F - 59.0 °F 88% 30.06 in 5.0 mi ESE 3.5 mph - N/A   Mostly Cloudy
2:00 AM 62.6 °F - 59.0 °F 88% 30.06 in 5.0 mi ESE 3.5 mph - N/A   Mostly Cloudy
3:00 AM 60.8 °F - 57.2 °F 88% 30.04 in 5.0 mi Variable 2.3 mph - N/A   Mostly Cloudy
4:00 AM 60 °F - 58 °F 89% 30.06 in 4 mi East 1.2 mph - -   Mostly Cloudy
4:00 AM 60.8 °F - 57.2 °F 88% 30.04 in 3.7 mi Variable 1.2 mph - N/A   Mostly Cloudy
4:30 AM 59.0 °F - 57.2 °F 94% 30.04 in 3.7 mi Variable 2.3 mph - N/A   Scattered Clouds
5:00 AM 59.0 °F - 57.2 °F 94% 30.04 in 3.7 mi Variable 1.2 mph - N/A   Scattered Clouds
6:00 AM 59.0 °F - 57.2 °F 94% 30.04 in 3.7 mi East 2.3 mph - N/A   Scattered Clouds
6:30 AM 59.0 °F - 57.2 °F 94% 30.04 in 3.7 mi Variable 2.3 mph - N/A   Scattered Clouds
7:00 AM 60 °F - 58 °F 89% 30.04 in 4 mi East 2.3 mph - -   Partly Cloudy
7:00 AM 59.0 °F - 57.2 °F 94% 30.04 in 3.7 mi Variable 2.3 mph - N/A   Scattered Clouds
7:12 AM 60.8 °F - 57.2 °F 88% 30.04 in 2.5 mi Variable 2.3 mph - N/A   Scattered Clouds
7:30 AM 59.0 °F - 57.2 °F 94% 30.04 in 2.5 mi Variable 2.3 mph - N/A   Scattered Clouds
7:48 AM 62.6 °F - 60.8 °F 94% 30.04 in 3.7 mi Variable 2.3 mph - N/A   Mist
7:49 AM 62.6 °F - 60.8 °F 94% 30.04 in 3.7 mi Variable 2.3 mph - N/A   Unknown
8:00 AM 62.6 °F - 60.8 °F 94% 30.04 in 3.7 mi Variable 2.3 mph - N/A   Unknown
8:30 AM 66.2 °F - 62.6 °F 88% 30.04 in 5.0 mi East 3.5 mph - N/A   Unknown
9:00 AM 69.8 °F - 62.6 °F 78% 30.04 in - ENE 4.6 mph - N/A   Clear
9:30 AM 71.6 °F - 62.6 °F 73% 30.04 in - ENE 4.6 mph - N/A   Clear
10:00 AM 73 °F - 61 °F 56% 30.05 in 6 mi NE 5.8 mph - -  
10:00 AM 73.4 °F - 60.8 °F 65% 30.04 in - NE 5.8 mph - N/A   Clear
10:30 AM 75.2 °F - 60.8 °F 61% 30.06 in - NNE 4.6 mph - N/A   Clear
11:00 AM 78.8 °F - 60.8 °F 54% 30.04 in - North 5.8 mph - N/A   Clear
11:30 AM 78.8 °F - 60.8 °F 54% 30.04 in - NNW 9.2 mph - N/A   Clear
12:00 PM 77.0 °F - 60.8 °F 57% 30.04 in - NNW 12.7 mph - N/A   Clear
12:30 PM 77.0 °F - 60.8 °F 57% 30.04 in - North 11.5 mph - N/A   Clear
1:00 PM 78.8 °F - 60.8 °F 54% 30.04 in - North 11.5 mph - N/A   Clear
1:30 PM 78.8 °F - 60.8 °F 54% 30.04 in - NNW 12.7 mph - N/A   Clear
2:00 PM 78.8 °F - 60.8 °F 54% 30.04 in - North 11.5 mph - N/A   Clear
2:30 PM 80.6 °F 81.5 °F 60.8 °F 51% 30.01 in - North 11.5 mph - N/A   Clear
3:00 PM 78.8 °F - 62.6 °F 57% 30.01 in - North 11.5 mph - N/A   Clear
3:30 PM 78.8 °F - 62.6 °F 57% 30.01 in - North 11.5 mph - N/A   Clear
4:00 PM 79 °F - 62 °F 46% 30.00 in 6 mi North 11.5 mph - -  
4:00 PM 78.8 °F - 62.6 °F 57% 30.01 in - North 11.5 mph - N/A   Clear
4:30 PM 78.8 °F - 62.6 °F 57% 30.01 in - North 11.5 mph - N/A   Clear
5:00 PM 78.8 °F - 62.6 °F 57% 30.01 in - North 11.5 mph - N/A   Clear
5:30 PM 77.0 °F - 62.6 °F 61% 30.01 in - North 11.5 mph - N/A   Clear
6:30 PM 75.2 °F - 64.4 °F 69% 29.98 in - North 10.4 mph - N/A   Clear
7:00 PM 75 °F - 65 °F 62% 30.00 in 6 mi North 10.4 mph - -  
7:00 PM 75.2 °F - 64.4 °F 69% 30.01 in - North 10.4 mph - N/A   Clear
7:30 PM 73.4 °F - 64.4 °F 73% 30.01 in - North 9.2 mph - N/A   Clear
8:00 PM 71.6 °F - 64.4 °F 78% 30.01 in 4.3 mi North 8.1 mph - N/A   Unknown
8:30 PM 71.6 °F - 66.2 °F 83% 30.01 in 4.3 mi North 6.9 mph - N/A   Unknown
9:00 PM 69.8 °F - 66.2 °F 88% 30.01 in 4.3 mi North 5.8 mph - N/A   Unknown
9:30 PM 68.0 °F - 64.4 °F 88% 30.04 in 4.3 mi NNE 4.6 mph - N/A   Unknown
10:00 PM 67 °F - 64 °F 86% 30.04 in 3 mi Calm Calm - -   Scattered Clouds
10:00 PM 68.0 °F - 64.4 °F 88% 30.04 in 3.1 mi Calm Calm - N/A   Partly Cloudy
10:30 PM 66.2 °F - 62.6 °F 88% 30.04 in 3.1 mi Calm Calm - N/A   Partly Cloudy
11:00 PM 62.6 °F - 60.8 °F 94% 30.04 in 3.1 mi Calm Calm - N/A   Partly Cloudy
11:30 PM 64.4 °F - 62.6 °F 94% 30.04 in 3.1 mi SSE 2.3 mph - N/A   Partly Cloudy
11:52 PM 62.6 °F - 60.8 °F 94% 30.04 in 1.9 mi Calm Calm - N/A   Partly Cloudy